[[{"header":{"parameterUnit":"m.s-1","parameterCategory":1,"la1":30.2991,"la2":30.254,"lo1":-89.0895,"lo2":-89.0444,"dy":0.0017,"dx":0.0017,"nx":28,"ny":28,"refTime":"2025-08-25T21:00:00:Z","depth":0,"parameterNumber":2,"parameterNumberName":"U-component_of_WINDS"},"data":[0,0,0,0,0,0,0,0,0,0,0,0,0,0,0,0,0,0,0,0,0,0,0,0,0,0,0,0,0,0,0,0,0,0,0,0,0,0,0,0,0,0,0,0,0,0,0,0,0,0,0,0,0,0,0,0,0,0,-4.0104,-4.0104,0,-4.0161,-4.0162,-4.0163,-4.0036,-4.0032,-4.0028,-4.0024,-4.0081,-4.0086,-4.0091,0,0,0,0,0,0,0,0,0,0,0,0,0,-3.9882,-3.9887,-4.0104,-4.0104,-4.0105,-4.0161,-4.0162,-4.0163,-4.0037,-4.0032,-4.0027,-4.0022,-4.0079,-4.0085,-4.0092,0,0,0,0,0,0,0,0,0,0,0,0,0,-3.9963,-3.9888,-4.0103,-4.0049,-4.0045,-4.0161,-4.0162,-4.0163,-4.0038,-4.0032,-4.0025,-4.002,-4.0077,-4.0085,-4.0093,-4.0264,0,0,-4.0117,-4.012,0,0,0,0,0,0,0,0,-3.9958,-3.9971,-4.0056,-4.0053,-4.0048,-4.0085,-4.0105,-4.0197,-4.0039,-4.004,-4.0024,-4.0017,-4.0087,-4.0094,-4.0118,-4.0267,-4.0269,-4.0118,-4.0123,-4.0126,-4.0128,0,0,0,0,0,0,0,-3.9953,-3.9968,-4.0126,-4.0058,-4.0053,-4.0021,-4.0026,-4.0121,-4.0097,-4.004,-4.0031,-4.0039,-4.0084,-4.0111,-4.0118,-4.027,-4.0118,-4.0125,-4.013,-4.0133,-4.0561,-4.0568,0,0,0,0,0,0,-3.9955,-3.9964,-4.0124,-4.0128,-3.9987,-4.003,-4.0035,-4.008,-4.0096,-4.0092,-4.0045,-4.0033,-4.01,-4.0109,-4.012,-4.0321,-4.0126,-4.0133,-4.0138,-4.0555,-4.0563,-4.057,0,0,0,0,0,0,-3.995,-3.997,-4.0122,-4.0044,-4.0061,-4.004,-4.0091,-4.0084,-4.0111,-4.0099,-4.0094,-4.0077,-4.0096,-4.0109,-4.0229,-4.0321,-4.0137,-4.0144,-4.0547,-4.0557,-4.0566,-4.0725,0,0,0,0,0,0,-3.9945,-3.9969,-4.0035,-4.0046,-4.0065,-4.0232,-4.0097,-4.0089,-4.0125,-4.0111,-4.0128,-4.0125,-4.0092,-4.0218,-4.0237,-4.0329,-4.015,-4.0539,-4.0552,-4.0563,-4.0711,-4.0739,-4.0762,0,0,0,0,0,-3.9937,-4.0077,-4.0039,-4.0059,-4.0147,-4.0237,-4.0248,-4.0207,-4.0133,-4.0198,-4.0191,-4.0125,-4.0308,-4.0231,-4.0252,-4.0347,-4.0533,-4.0548,-4.0562,-4.0699,-4.0733,-4.0762,0,0,0,0,0,0,-4.0075,-4.0077,-4.0035,-4.0183,-4.0211,-4.0215,-4.0296,-4.0244,-4.0293,-4.0278,-4.0225,-4.023,-4.036,-4.0366,-4.028,-4.0513,-4.0408,-4.0427,-4.0505,-4.0537,-4.0562,-4.0557,-4.0157,0,0,0,0,0,-4.0123,-4.0198,-4.0194,-4.0325,-4.0341,-4.0317,-4.0355,-4.0321,-4.0348,-4.0359,-4.036,-4.0388,-4.0452,-4.0495,-4.0553,-4.0712,-4.0713,-4.0787,-4.0813,-4.0834,-4.0851,-4.0935,-4.0967,-4.0619,-4.0619,-4.0618,0,0,-4.0223,-4.0233,-4.0282,-4.0353,-4.0371,-4.0448,-4.0328,-4.0414,-4.047,-4.0371,-4.0485,-4.0488,-4.0515,-4.0656,-4.0717,-4.0664,-4.0948,-4.0853,-4.087,-4.0876,-4.0953,-4.0986,-4.1016,-4.0629,-4.0627,-4.0625,0,0,-4.0442,-4.0458,-4.0568,-4.0589,-4.0618,-4.0601,-4.0628,-4.0641,-4.0639,-4.0752,-4.068,-4.0746,-4.0857,-4.0879,-4.0905,-4.1135,-4.1075,-4.1156,-4.1289,-4.1371,-4.1398,-4.1422,-4.1503,-4.1533,-4.1173,-4.1173,-4.1174,0,-4.0561,-4.0675,-4.0631,-4.0723,-4.0756,-4.0671,-4.0782,-4.0804,-4.085,-4.0874,-4.0814,-4.0952,-4.0965,-4.1109,-4.1165,-4.1189,-4.1217,-4.1152,-4.1398,-4.1422,-4.1444,-4.152,-4.155,-4.1183,-4.1182,-4.1181,-4.118,0,-4.082,-4.09,-4.0985,-4.1033,-4.1076,-4.1177,-4.1147,-4.1195,-4.1159,-4.1148,-4.1265,-4.1277,-4.1336,-4.1368,-4.1333,-4.1507,-4.1473,-4.1407,-4.1299,-4.1487,-4.1558,-4.1587,-4.1196,-4.1193,-4.119,-4.1188,0,0,-4.1126,-4.115,-4.1181,-4.1202,-4.1228,-4.1289,-4.1386,-4.1445,-4.1487,-4.1522,-4.1601,-4.1698,-4.1637,-4.1666,-4.1633,-4.1706,-4.1885,-4.163,-4.163,-4.1676,-4.2077,-4.2125,-4.216,-4.1847,-4.1852,-4.1857,-4.2074,0,-4.1342,-4.151,-4.1473,-4.1637,-4.171,-4.1632,-4.1716,-4.1741,-4.1734,-4.1795,-4.1786,-4.1855,-4.177,-4.1787,-4.1856,-4.1849,-4.1965,-4.1833,-4.1919,-4.1922,-4.1912,-4.2197,-4.2248,-4.2453,-4.2102,-4.2106,-4.211,0,-4.1616,-4.1663,-4.1835,-4.185,-4.1879,-4.1956,-4.2006,-4.2065,-4.2092,-4.2082,-4.2116,-4.2069,-4.2164,-4.2058,-4.2187,-4.2099,-4.2132,-4.2134,-4.2141,-4.2145,-4.2026,-4.2208,-4.2517,-4.2547,-4.2153,-4.215,-4.2147,0,-4.1821,-4.1927,-4.2043,-4.2063,-4.2084,-4.2139,-4.215,-4.2171,-4.2209,-4.2253,-4.2277,-4.2332,-4.2362,-4.2405,-4.2374,-4.2299,-4.2509,-4.2399,-4.2502,-4.2503,-4.2547,-4.2545,-4.2865,-4.2573,-4.2572,-4.2572,-4.2571,0,-4.2065,-4.2172,-4.2135,-4.2206,-4.2324,-4.2282,-4.24,-4.2402,-4.2421,-4.2491,-4.2427,-4.2494,-4.2449,-4.2512,-4.2489,-4.2599,-4.2614,-4.2607,-4.2599,-4.2612,-4.2612,-4.2631,-4.2615,-4.258,-4.2578,-4.2576,-4.2575,0,-4.2311,-4.2291,-4.2412,-4.2423,-4.2428,-4.2515,-4.2523,-4.2589,-4.2578,-4.2667,-4.2685,-4.2668,-4.2738,-4.2712,-4.2788,-4.2772,-4.2912,-4.2887,-4.2903,-4.2896,-4.2999,-4.2989,-4.334,-4.3384,-4.3066,-4.307,-4.3072,0,-4.2467,-4.2548,-4.2568,-4.261,-4.2626,-4.2696,-4.2734,-4.2696,-4.2738,-4.2776,-4.2837,-4.2903,-4.2953,-4.307,-4.3063,-4.312,-4.3094,-4.3214,-4.3102,-4.3112,-4.3094,-4.3088,-4.3095,-4.3235,-4.3239,-4.3242,-4.3244,0,-4.2745,-4.2731,-4.2789,-4.2845,-4.2893,-4.2935,-4.297,-4.3009,-4.2972,-4.3023,-4.3095,-4.3135,-4.3212,-4.3277,-4.3329,-4.3339,-4.3286,-4.328,-4.3306,-4.3318,-4.3324,-4.332,-4.2962,-4.3271,-4.3268,-4.3266,-4.3265,-4.3264,-4.2949,-4.3017,-4.3042,-4.3109,-4.3133,-4.3168,-4.323,-4.3228,-4.3288,-4.3348,-4.3322,-4.3406,-4.343,-4.3494,-4.3512,-4.3576,-4.3529,-4.3568,-4.3577,-4.3587,-4.3599,-4.3316,-4.3586,-4.3585,-4.3584,-4.3583,-4.3583,0,-4.3221,-4.3234,-4.3297,-4.3349,-4.3402,-4.335,-4.3387,-4.3434,-4.3508,-4.3537,-4.3588,-4.3671,-4.3734,-4.3734,-4.3793,-4.3844,-4.3821,-4.386,-4.3855,-4.3858,-4.3639,-4.3609,-4.3878,-4.3878,-4.3878,-4.3878,-4.3878,-4.3878,-4.3369,-4.3482,-4.3471,-4.3595,-4.3606,-4.3688,-4.3713,-4.3745,-4.3768,-4.3864,-4.3917,-4.3916,-4.3933,-4.3993,-4.4049,-4.4047,-4.407,-4.4119,-4.4108,-4.3903,-4.3873,-4.3845,-4.3817,-4.4125,-4.4125,-4.4321,-4.4323,-4.4324]},{"header":{"parameterUnit":"m.s-1","parameterCategory":1,"la1":30.2991,"la2":30.254,"lo1":-89.0895,"lo2":-89.0444,"dy":0.0017,"dx":0.0017,"nx":28,"ny":28,"refTime":"2025-08-25T21:00:00:Z","depth":0,"parameterNumber":3,"parameterNumberName":"V-component_of_WINDS"},"data":[0,0,0,0,0,0,0,0,0,0,0,0,0,0,0,0,0,0,0,0,0,0,0,0,0,0,0,0,0,0,0,0,0,0,0,0,0,0,0,0,0,0,0,0,0,0,0,0,0,0,0,0,0,0,0,0,0,0,-2.5264,-2.5264,0,-2.5283,-2.5283,-2.5283,-2.5282,-2.5282,-2.5281,-2.5281,-2.5298,-2.5299,-2.53,0,0,0,0,0,0,0,0,0,0,0,0,0,-2.5223,-2.5224,-2.5264,-2.5265,-2.5265,-2.5283,-2.5283,-2.5283,-2.5282,-2.5282,-2.5281,-2.5281,-2.5298,-2.5299,-2.53,0,0,0,0,0,0,0,0,0,0,0,0,0,-2.5242,-2.5225,-2.5264,-2.5266,-2.5267,-2.5283,-2.5283,-2.5283,-2.5282,-2.5282,-2.5281,-2.5281,-2.5298,-2.5299,-2.53,-2.5315,0,0,-2.5303,-2.5304,0,0,0,0,0,0,0,0,-2.524,-2.5243,-2.5266,-2.5266,-2.5267,-2.528,-2.5275,-2.5294,-2.5282,-2.5276,-2.5281,-2.5281,-2.5292,-2.5294,-2.5298,-2.5315,-2.5316,-2.5303,-2.5304,-2.5304,-2.5305,0,0,0,0,0,0,0,-2.5239,-2.5242,-2.5272,-2.5266,-2.5267,-2.5265,-2.5267,-2.5279,-2.5286,-2.5277,-2.5277,-2.5279,-2.5292,-2.5297,-2.5298,-2.5316,-2.5303,-2.5304,-2.5305,-2.5305,-2.5343,-2.5344,0,0,0,0,0,0,-2.5238,-2.5241,-2.5271,-2.5272,-2.5252,-2.5266,-2.5268,-2.5276,-2.5286,-2.5287,-2.5279,-2.5279,-2.5295,-2.5297,-2.5299,-2.5315,-2.5304,-2.5305,-2.5306,-2.5343,-2.5343,-2.5344,0,0,0,0,0,0,-2.5237,-2.5241,-2.527,-2.5257,-2.526,-2.5267,-2.5276,-2.5276,-2.5281,-2.5288,-2.5289,-2.5283,-2.5295,-2.5298,-2.531,-2.5316,-2.5306,-2.5307,-2.5342,-2.5343,-2.5344,-2.5349,0,0,0,0,0,0,-2.5236,-2.524,-2.5247,-2.5257,-2.5261,-2.5282,-2.5276,-2.5277,-2.5283,-2.5283,-2.5292,-2.5293,-2.5295,-2.5309,-2.5311,-2.5317,-2.5308,-2.5342,-2.5343,-2.5343,-2.5348,-2.5349,-2.5351,0,0,0,0,0,-2.5235,-2.5248,-2.5248,-2.5251,-2.527,-2.5283,-2.5285,-2.5288,-2.5284,-2.529,-2.5294,-2.5293,-2.5315,-2.531,-2.5313,-2.5319,-2.5342,-2.5342,-2.5343,-2.5348,-2.5349,-2.5351,0,0,0,0,0,0,-2.524,-2.525,-2.5249,-2.5267,-2.5274,-2.5283,-2.5291,-2.529,-2.5298,-2.5297,-2.53,-2.5302,-2.5314,-2.5318,-2.5312,-2.5332,-2.5327,-2.5329,-2.533,-2.5331,-2.5332,-2.5331,-2.5308,0,0,0,0,0,-2.5243,-2.5253,-2.5261,-2.5276,-2.5279,-2.5284,-2.529,-2.5291,-2.5298,-2.5301,-2.5306,-2.5313,-2.5321,-2.5326,-2.5334,-2.5348,-2.5349,-2.5354,-2.5355,-2.5356,-2.5357,-2.5363,-2.5364,-2.5346,-2.5346,-2.5346,0,0,-2.5249,-2.5256,-2.5263,-2.5277,-2.5282,-2.5292,-2.5287,-2.5298,-2.5304,-2.5303,-2.5315,-2.5318,-2.5325,-2.5338,-2.5344,-2.5342,-2.5362,-2.5357,-2.5358,-2.5359,-2.5364,-2.5365,-2.5367,-2.5347,-2.5347,-2.5347,0,0,-2.5266,-2.5273,-2.5285,-2.529,-2.5298,-2.5301,-2.5304,-2.5312,-2.5314,-2.5326,-2.5325,-2.5331,-2.5346,-2.535,-2.5355,-2.5369,-2.5368,-2.5372,-2.5378,-2.5383,-2.5385,-2.5386,-2.539,-2.5391,-2.5373,-2.5373,-2.5373,0,-2.5273,-2.5288,-2.5291,-2.5301,-2.5306,-2.5305,-2.5315,-2.532,-2.5331,-2.5334,-2.5331,-2.5347,-2.5352,-2.5365,-2.5368,-2.5372,-2.5373,-2.5371,-2.5384,-2.5386,-2.5387,-2.539,-2.5392,-2.5373,-2.5373,-2.5373,-2.5373,0,-2.5295,-2.5306,-2.5314,-2.5323,-2.5329,-2.534,-2.5342,-2.5348,-2.5347,-2.535,-2.536,-2.5366,-2.5374,-2.5377,-2.5377,-2.5388,-2.5387,-2.5384,-2.5379,-2.5389,-2.5392,-2.5394,-2.5374,-2.5373,-2.5373,-2.5373,0,0,-2.5318,-2.5327,-2.533,-2.5333,-2.5341,-2.5348,-2.5357,-2.5365,-2.5368,-2.5375,-2.5381,-2.5392,-2.5389,-2.5393,-2.5394,-2.5398,-2.5407,-2.5395,-2.5395,-2.5396,-2.5418,-2.542,-2.5421,-2.5406,-2.5406,-2.5407,-2.5417,0,-2.5335,-2.5352,-2.5353,-2.5367,-2.5375,-2.5373,-2.538,-2.5385,-2.5386,-2.5392,-2.5394,-2.5401,-2.5397,-2.5399,-2.5404,-2.5405,-2.5412,-2.5405,-2.5411,-2.5411,-2.5409,-2.5423,-2.5426,-2.5436,-2.5419,-2.5419,-2.5419,0,-2.5357,-2.5363,-2.5379,-2.5383,-2.5386,-2.5393,-2.5399,-2.5405,-2.5409,-2.5409,-2.5413,-2.5412,-2.5419,-2.5414,-2.5423,-2.5418,-2.542,-2.5421,-2.5421,-2.5422,-2.5416,-2.5424,-2.5439,-2.544,-2.5421,-2.5421,-2.5421,0,-2.537,-2.5382,-2.5393,-2.5395,-2.5401,-2.5405,-2.5407,-2.5411,-2.5415,-2.5419,-2.5421,-2.5426,-2.5429,-2.5432,-2.5432,-2.5428,-2.544,-2.5435,-2.544,-2.544,-2.5443,-2.5443,-2.5458,-2.5445,-2.5445,-2.5445,-2.5445,0,-2.5388,-2.5398,-2.5398,-2.5404,-2.5414,-2.5413,-2.5422,-2.5424,-2.5427,-2.5432,-2.543,-2.5435,-2.5434,-2.5438,-2.5438,-2.5444,-2.5446,-2.5445,-2.5445,-2.5445,-2.5445,-2.5447,-2.5446,-2.5446,-2.5445,-2.5445,-2.5445,0,-2.5405,-2.5406,-2.5417,-2.542,-2.5421,-2.5427,-2.543,-2.5434,-2.5435,-2.5441,-2.5443,-2.5443,-2.5448,-2.5448,-2.5453,-2.5453,-2.546,-2.5459,-2.5459,-2.5459,-2.5463,-2.5462,-2.548,-2.5482,-2.5468,-2.5468,-2.5468,0,-2.5417,-2.5423,-2.5427,-2.543,-2.5432,-2.5438,-2.5441,-2.544,-2.5444,-2.5447,-2.5451,-2.5456,-2.5459,-2.5466,-2.5467,-2.547,-2.5469,-2.5474,-2.5469,-2.5469,-2.5468,-2.5467,-2.5467,-2.5476,-2.5476,-2.5476,-2.5476,0,-2.5436,-2.5436,-2.5441,-2.5445,-2.5449,-2.5453,-2.5456,-2.5458,-2.5457,-2.5461,-2.5466,-2.5468,-2.5473,-2.5476,-2.5479,-2.548,-2.5477,-2.5477,-2.5479,-2.5479,-2.5478,-2.5477,-2.5461,-2.5477,-2.5477,-2.5477,-2.5477,-2.5477,-2.545,-2.5455,-2.5458,-2.5462,-2.5464,-2.5467,-2.5471,-2.5471,-2.5475,-2.5479,-2.5478,-2.5482,-2.5484,-2.5487,-2.5488,-2.5491,-2.5488,-2.549,-2.5491,-2.5491,-2.5491,-2.5478,-2.5491,-2.5491,-2.5491,-2.5491,-2.5491,0,-2.5469,-2.547,-2.5474,-2.5478,-2.5481,-2.5478,-2.5481,-2.5483,-2.5488,-2.5489,-2.5492,-2.5496,-2.5499,-2.5498,-2.5501,-2.5503,-2.5501,-2.5503,-2.5503,-2.5503,-2.5494,-2.5492,-2.5504,-2.5504,-2.5504,-2.5504,-2.5504,-2.5504,-2.5479,-2.5486,-2.5485,-2.5493,-2.5494,-2.5498,-2.55,-2.5501,-2.5502,-2.5507,-2.5509,-2.5509,-2.5509,-2.5511,-2.5512,-2.5512,-2.5513,-2.5515,-2.5514,-2.5505,-2.5504,-2.5503,-2.5501,-2.5515,-2.5515,-2.5523,-2.5523,-2.5523]}]]